Home > Time Zones > World Clock > Weather > Belgium > Spa > Past weeks

Flag for Belgium Weather past 2 weeks in Spa, Belgium

Now
42 °F

Light rain. Scattered clouds.


Feels Like: 36 °F
Forecast: 36 / 42 °F
Wind: 8 mph from West

Location: Spa / La Sauveniere

Current Time: Mar 31, 2015 at 11:02:48 PM

Latest Report: Mar 31, 2015 at 8:00 PM


Visibility: 13 mi

Pressure: 29.84 "Hg

Humidity: 73%

Dew point: 33 °F

Location of SpaLocation

Historic Weather in Spa — Graph

°F

Spa temperature yesterday

Maximum temperature yesterday: 44 °F (at 5:00 PM)
Minimum temperature yesterday: 39 °F (at 7:00 AM)
Average temperature yesterday: 41 °F

Past Weeks' High & Low Weather Summary

 TemperatureHumidityPressure
High62 °F (Mar 17, 2:00 PM)100% (Mar 19, 11:00 AM)30.40 "Hg (Mar 19, 11:00 AM)
Low30 °F (Mar 23, 2:00 AM)25% (Mar 17, 2:00 PM)29.41 "Hg (Mar 29, 7:00 PM)
Average41 °F83%30.01 "Hg
* Reported Mar 16 7:00 PM — Mar 31 8:00 PM, Spa, Weather by CustomWeather, © 2015

Note: Actual official high and low records may vary slightly from our data, if they occured in-between our weather recording intervals... More about our weather records

Advertising

Spa weather history for previous 24 hours

 ConditionsComfort  
Time TempWeatherWind HumidityBarometerVisibility
8:00 PM
Tue, Mar 31
42 °FLight rain. Scattered clouds.8 mph73%29.84 "Hg13 mi
7:00 PM45 °FScattered clouds.7 mph56%29.82 "Hg22 mi
6:00 PM45 °FScattered clouds.8 mph52%29.82 "Hg28 mi
5:00 PM46 °FOvercast.9 mph51%29.79 "Hg25 mi
4:00 PM46 °FPartly sunny.10 mph56%29.75 "Hg22 mi
3:00 PM43 °FOvercast.9 mph81%29.73 "Hg18 mi
2:00 PM43 °FOvercast.9 mph89%29.70 "Hg14 mi
1:00 PM42 °FDrizzle. Low clouds.9 mph93%29.67 "Hg6 mi
12:00 PM43 °FPassing clouds.8 mph88%29.62 "Hg5 mi
11:00 AM46 °FScattered clouds.10 mph80%29.56 "Hg8 mi
10:00 AM46 °FFog.10 mph87%29.53 "Hg16 mi
9:00 AM45 °FScattered clouds.10 mph94%29.50 "Hg4 mi
8:00 AM45 °FPassing clouds.12 mph92%29.47 "Hg4 mi
7:00 AM47 °FLight rain. Low clouds.14 mph99%29.44 "Hg2 mi
6:00 AM49 °FDrizzle. Overcast.12 mph90%29.41 "Hg4 mi
4:00 AM47 °FOvercast.12 mph90%29.50 "Hg16 mi
3:00 AM46 °FDrizzle. Low clouds.13 mph96%29.56 "Hg4 mi
2:00 AM44 °FDrizzle. Low clouds.13 mph94%29.63 "Hg3 mi
1:00 AM41 °FLow clouds.8 mph92%29.70 "HgN/A
12:00 AM39 °FLight rain. Overcast.7 mph90%29.77 "Hg5 mi
11:00 PM
Mon, Mar 30
40 °FPassing clouds.6 mph76%29.82 "Hg13 mi
Weather by CustomWeather, © 2015

See weather overviewHow to use our weather pages